User: anonymous   Login
Location: Unspecified
(0.0000°N, 0.0000°E)
Time: 17:56:48
(UTC+01:00)
Language:

Ariane H10 - Orbit

View from above orbital plane
View from above orbital plane
View from above satellite
View from above satellite

Ground track
Ground track

The orbit data is extracted from the following two-line orbital elements,

1 21727U 91067B   16044.46777651  .00000202  00000-0  75724-3 0  9992
2 21727   3.8521 170.9781 7191037 114.4504 332.5864  2.31834258166583
Epoch (UTC): 13 February 2016 11:13:35
Eccentricity: 0.7191037
inclination: 3.8521°
perigee height: 395 km
apogee height: 35077 km
right ascension of ascending node: 170.9781°
argument of perigee: 114.4504°
revolutions per day: 2.31834258
mean anomaly at epoch: 332.5864°
orbit number at epoch: 16658

The dashed part of the orbit path shows where the satellite is in the earth's shadow,  

DLR